When you browse on this site, cookies collect data to enhance your experience and personalize the content and advertising you see.
Visit our Privacy Policy to learn more. By continuing to use the site, you agree to this use of cookies and data.
  • In Sweden
  • List of Countries
  • For 7 days
  • Water Temperature
  • Weather Map
  • Weather Widgets
  • user-avatar
    Login

    Hourly Weather Calcutta

    Today, 24 February, Monday

    Time Temperature Precipitation Wind Pressure Humidity
    00:00 +24°C° 0 mm 1 mps 760 mmHg 48%
    01:00 +24°C° 0 mm 2 mps 760 mmHg 51%
    02:00 +23°C° 0 mm 2 mps 759 mmHg 53%
    03:00 +23°C° 0 mm 2 mps 759 mmHg 55%
    04:00 +23°C° 0 mm 1 mps 759 mmHg 55%
    05:00 +23°C° 0 mm 1 mps 759 mmHg 54%
    06:00 +21°C° 0 mm 0 mps 759 mmHg 53%
    07:00 +25°C° 0 mm 1 mps 760 mmHg 49%
    08:00 +26°C° 0 mm 1 mps 760 mmHg 44%
    09:00 +27°C° 0 mm 2 mps 761 mmHg 40%
    10:00 +28°C° 0 mm 2 mps 760 mmHg 38%
    11:00 +29°C° 0 mm 3 mps 760 mmHg 36%
    12:00 +30°C° 0 mm 3 mps 760 mmHg 34%
    13:00 +31°C° 0 mm 3 mps 759 mmHg 32%
    14:00 +32°C° 0 mm 2 mps 758 mmHg 30%
    15:00 +32°C° 0 mm 1 mps 757 mmHg 27%
    16:00 +31°C° 0 mm 1 mps 757 mmHg 30%
    17:00 +31°C° 0 mm 2 mps 757 mmHg 32%
    18:00 +30°C° 0 mm 2 mps 757 mmHg 35%
    19:00 +28°C° 0 mm 2 mps 757 mmHg 40%
    20:00 +27°C° 0 mm 2 mps 758 mmHg 45%
    21:00 +25°C° 0 mm 2 mps 759 mmHg 50%
    22:00 +25°C° 0 mm 2 mps 759 mmHg 53%
    23:00 +24°C° 0 mm 2 mps 759 mmHg 57%

    Tomorrow, 25 February, Tuesday

    Time Temperature Precipitation Wind Pressure Humidity
    00:00 +23°C° 0 mm 1 mps 759 mmHg 60%
    01:00 +23°C° 0 mm 1 mps 758 mmHg 58%
    02:00 +24°C° 0 mm 1 mps 758 mmHg 56%
    03:00 +24°C° 0 mm 1 mps 757 mmHg 54%
    04:00 +24°C° 0 mm 2 mps 758 mmHg 54%
    05:00 +24°C° 0 mm 2 mps 758 mmHg 55%
    06:00 +24°C° 0 mm 2 mps 758 mmHg 55%
    07:00 +25°C° 0 mm 3 mps 758 mmHg 53%
    08:00 +26°C° 0 mm 4 mps 759 mmHg 50%
    09:00 +26°C° 0 mm 4 mps 760 mmHg 48%
    10:00 +27°C° 0 mm 5 mps 760 mmHg 44%
    11:00 +28°C° 0 mm 5 mps 759 mmHg 41%
    12:00 +29°C° 0 mm 6 mps 759 mmHg 37%
    13:00 +29°C° 0 mm 6 mps 758 mmHg 38%
    14:00 +28°C° 0 mm 6 mps 758 mmHg 40%
    15:00 +28°C° 0 mm 6 mps 757 mmHg 41%
    16:00 +27°C° 0.1 mm 5 mps 757 mmHg 44%
    17:00 +26°C° 0.1 mm 4 mps 757 mmHg 47%
    18:00 +25°C° 0.1 mm 4 mps 757 mmHg 51%
    19:00 +25°C° 0 mm 4 mps 757 mmHg 49%
    20:00 +25°C° 0 mm 3 mps 758 mmHg 47%
    21:00 +25°C° 0 mm 3 mps 758 mmHg 45%
    22:00 +25°C° 0 mm 4 mps 758 mmHg 48%
    23:00 +23°C° 0 mm 5 mps 758 mmHg 51%

    Day after tomorrow, 26 February, Wednesday

    Time Temperature Precipitation Wind Pressure Humidity
    00:00 +23°C° 0 mm 6 mps 759 mmHg 54%
    01:00 +22°C° 0.3 mm 5 mps 759 mmHg 60%
    02:00 +22°C° 0.3 mm 4 mps 759 mmHg 67%
    03:00 +21°C° 0.3 mm 4 mps 759 mmHg 74%
    04:00 +20°C° 0 mm 3 mps 759 mmHg 78%
    05:00 +20°C° 0 mm 2 mps 759 mmHg 81%
    06:00 +20°C° 0 mm 1 mps 759 mmHg 84%
    07:00 +20°C° 0 mm 2 mps 759 mmHg 78%
    08:00 +23°C° 0 mm 2 mps 760 mmHg 72%
    09:00 +24°C° 0 mm 3 mps 760 mmHg 66%
    10:00 +26°C° 0 mm 3 mps 760 mmHg 58%
    11:00 +28°C° 0 mm 4 mps 759 mmHg 51%
    12:00 +30°C° 0 mm 4 mps 759 mmHg 44%
    13:00 +30°C° 0.1 mm 4 mps 758 mmHg 43%
    14:00 +30°C° 0.1 mm 4 mps 757 mmHg 43%
    15:00 +32°C° 0.1 mm 5 mps 757 mmHg 42%
    16:00 +30°C° 0 mm 4 mps 757 mmHg 46%
    17:00 +29°C° 0 mm 4 mps 757 mmHg 49%
    18:00 +28°C° 0 mm 4 mps 757 mmHg 52%
    19:00 +26°C° 0.3 mm 3 mps 757 mmHg 59%
    20:00 +25°C° 0.3 mm 3 mps 758 mmHg 66%
    21:00 +24°C° 0.3 mm 2 mps 758 mmHg 73%
    22:00 +23°C° 0.1 mm 2 mps 759 mmHg 73%
    23:00 +23°C° 0.1 mm 2 mps 759 mmHg 73%

    27 February, Thursday

    Time Temperature Precipitation Wind Pressure Humidity
    00:00 +21°C° 0.1 mm 2 mps 759 mmHg 73%
    01:00 +21°C° 0 mm 2 mps 758 mmHg 73%
    02:00 +21°C° 0 mm 2 mps 758 mmHg 72%
    03:00 +20°C° 0 mm 2 mps 758 mmHg 72%
    04:00 +21°C° 0 mm 1 mps 758 mmHg 73%
    05:00 +21°C° 0 mm 1 mps 758 mmHg 74%
    06:00 +20°C° 0 mm 1 mps 758 mmHg 75%
    07:00 +22°C° 0 mm 1 mps 759 mmHg 67%
    08:00 +24°C° 0 mm 1 mps 759 mmHg 60%
    09:00 +26°C° 0 mm 2 mps 760 mmHg 53%
    10:00 +28°C° 0 mm 2 mps 760 mmHg 45%
    11:00 +29°C° 0 mm 2 mps 759 mmHg 37%
    12:00 +31°C° 0 mm 2 mps 759 mmHg 29%
    13:00 +33°C° 0 mm 3 mps 758 mmHg 27%
    14:00 +33°C° 0 mm 3 mps 758 mmHg 25%
    15:00 +34°C° 0 mm 4 mps 757 mmHg 23%
    16:00 +33°C° 0 mm 4 mps 757 mmHg 26%
    17:00 +30°C° 0 mm 3 mps 757 mmHg 30%
    18:00 +29°C° 0 mm 3 mps 757 mmHg 33%
    19:00 +28°C° 0 mm 2 mps 758 mmHg 36%
    20:00 +26°C° 0 mm 2 mps 758 mmHg 39%
    21:00 +25°C° 0 mm 1 mps 759 mmHg 43%
    22:00 +25°C° 0 mm 1 mps 759 mmHg 47%
    23:00 +24°C° 0 mm 1 mps 759 mmHg 51%

    28 February, Friday

    Time Temperature Precipitation Wind Pressure Humidity
    00:00 +23°C° 0 mm 1 mps 759 mmHg 55%
    01:00 +23°C° 0 mm 2 mps 758 mmHg 56%
    02:00 +21°C° 0 mm 2 mps 758 mmHg 57%
    03:00 +21°C° 0 mm 3 mps 757 mmHg 58%
    04:00 +21°C° 0 mm 2 mps 757 mmHg 61%
    05:00 +20°C° 0 mm 2 mps 757 mmHg 63%
    06:00 +20°C° 0 mm 2 mps 757 mmHg 66%
    07:00 +21°C° 0 mm 2 mps 758 mmHg 61%
    08:00 +24°C° 0 mm 2 mps 759 mmHg 55%
    09:00 +26°C° 0 mm 2 mps 759 mmHg 49%
    10:00 +28°C° 0 mm 2 mps 759 mmHg 43%
    11:00 +30°C° 0 mm 2 mps 759 mmHg 37%
    12:00 +31°C° 0 mm 2 mps 758 mmHg 31%
    13:00 +32°C° 0 mm 2 mps 758 mmHg 29%
    14:00 +33°C° 0 mm 3 mps 757 mmHg 27%
    15:00 +34°C° 0 mm 3 mps 756 mmHg 25%
    16:00 +33°C° 0 mm 3 mps 756 mmHg 28%
    17:00 +31°C° 0 mm 3 mps 756 mmHg 30%
    18:00 +29°C° 0 mm 3 mps 756 mmHg 33%
    19:00 +28°C° 0 mm 2 mps 756 mmHg 35%
    20:00 +27°C° 0 mm 2 mps 757 mmHg 37%
    21:00 +26°C° 0 mm 2 mps 757 mmHg 38%
    22:00 +25°C° 0 mm 2 mps 757 mmHg 40%
    23:00 +25°C° 0 mm 2 mps 757 mmHg 41%

    29 February, Saturday

    Time Temperature Precipitation Wind Pressure Humidity
    00:00 +24°C° 0 mm 1 mps 757 mmHg 43%
    01:00 +23°C° 0 mm 1 mps 757 mmHg 45%
    02:00 +23°C° 0 mm 1 mps 757 mmHg 48%
    03:00 +22°C° 0 mm 1 mps 757 mmHg 50%
    04:00 +22°C° 0 mm 1 mps 757 mmHg 51%
    05:00 +22°C° 0 mm 1 mps 757 mmHg 52%
    06:00 +21°C° 0 mm 1 mps 757 mmHg 52%
    07:00 +24°C° 0 mm 1 mps 757 mmHg 48%
    08:00 +26°C° 0 mm 1 mps 758 mmHg 43%
    09:00 +28°C° 0 mm 1 mps 758 mmHg 38%
    10:00 +29°C° 0 mm 1 mps 758 mmHg 34%
    11:00 +31°C° 0 mm 2 mps 757 mmHg 31%
    12:00 +34°C° 0 mm 2 mps 757 mmHg 27%
    13:00 +34°C° 0 mm 2 mps 756 mmHg 25%
    14:00 +35°C° 0 mm 2 mps 756 mmHg 23%
    15:00 +36°C° 0 mm 3 mps 755 mmHg 22%
    16:00 +34°C° 0 mm 2 mps 755 mmHg 25%
    17:00 +32°C° 0 mm 2 mps 755 mmHg 28%
    18:00 +31°C° 0 mm 2 mps 755 mmHg 31%
    19:00 +29°C° 0 mm 2 mps 756 mmHg 39%
    20:00 +27°C° 0 mm 3 mps 756 mmHg 47%
    21:00 +26°C° 0 mm 3 mps 757 mmHg 55%
    22:00 +25°C° 0 mm 3 mps 757 mmHg 60%
    23:00 +25°C° 0 mm 3 mps 757 mmHg 66%
    Show more